Location: Doschendorf
(50.0069°N, 11.0602°E)
Time: 00:48:50
(UTC+00:00)

CSL-04 Rocket - Pass Details

Date: 17 November 2019
Orbit: 806 x 860 km, 99.0° (Epoch: 07 December)

Event Time Altitude Azimuth Distance (km) Brightness Sun altitude
Rises 17:52:33 0° 171° (S) 3,352 6.8 -22.7°
Reaches altitude 10° 17:54:55 10° 174° (S) 2,415 6.0 -23.1°
Maximum altitude 18:00:13 66° 257° (WSW) 892 3.9 -23.9°
Drops below altitude 10° 18:05:31 10° 340° (NNW) 2,406 6.3 -24.8°
Sets 18:07:53 0° 343° (NNW) 3,338 7.0 -25.2°
